Regional Weather Roundup
Issued by NWS

Home | Current Version | Previous Version | Text Only | Print | Product List | Glossary Off
Versions: 1 2 3 4 5 6 7 8 9 10 11 12 13 14 15 16 17 18 19 20 21 22 23 24 25 26 27

000
ASUS45 KBOI 282310
RWRID

IDAHO REGIONAL WEATHER ROUNDUP
NATIONAL WEATHER SERVICE BOISE ID
500 PM MDT FRI APR 28 2017

NOTE: "FAIR" INDICATES FEW OR NO CLOUDS BELOW 12000 FEET
WITH NO SIGNIFICANT WEATHER AND/OR OBSTRUCTIONS TO VISIBILITY

IDZ012-014-290000-
SOUTHWEST IDAHO


CITY           SKY/WX    TMP DP  RH WIND       PRES   REMARKS
BOISE          MOSUNNY   57  30  35 N23G37    30.07S
CALDWELL       MOSUNNY   57  30  35 NW15G24   30.11S
MOUNTAIN HOME  SUNNY     57  29  34 NW28G35   30.05S
$$

IDZ016-017-290000-
SOUTHCENTRAL IDAHO


CITY           SKY/WX    TMP DP  RH WIND       PRES   REMARKS
BURLEY         CLOUDY    53  24  32 W14G22    29.97F
JEROME         PTSUNNY   54  26  34 SW23G31   30.00S
TWIN FALLS     PTSUNNY   53  27  36 W17G30    30.01F
$$

IDZ019>023-290000-
SOUTHEAST IDAHO


CITY           SKY/WX    TMP DP  RH WIND       PRES   REMARKS
IDAHO FALLS    CLOUDY    49  26  41 N21       29.95R
POCATELLO      CLOUDY    48  29  47 MISG      29.97S
REXBURG        CLOUDY    48  23  37 N13G24    29.95R
$$

IDZ006-010-011-018-031-032-290000-
CENTRAL IDAHO MOUNTAINS


CITY           SKY/WX    TMP DP  RH WIND       PRES   REMARKS
MCCALL         CLOUDY    44  23  43 N15G25    30.11R
HAILEY         MOSUNNY   52  16  24 N12       29.99S
STANLEY          N/A     41  16  36 NW10      30.06R
SALMON         CLOUDY    54  23  30 N13G24    30.04R
CHALLIS        CLOUDY    50  19  29 N16G24    30.03R
$$

IDZ002-004-006-007-026-290000-
NORTHERN IDAHO


CITY           SKY/WX    TMP DP  RH WIND       PRES   REMARKS
LEWISTON       CLOUDY    56  35  45 VRB5      30.20F
LOWELL           N/A     48  40  73 CALM      30.27F
COEUR D`ALENE  CLOUDY    53  37  54 S12       30.16F
MULLAN PASS    FOG       32  31  96 VRB5      30.14S VSB 1/4 WCI  27
$$




USA.gov is the U.S. government's official web portal to all federal, state and local government web resources and services.